Date,TemperatureHighF,TemperatureAvgF,TemperatureLowF,DewpointHighF,DewpointAvgF,DewpointLowF,HumidityHigh,HumidityAvg,HumidityLow,PressureMaxIn,PressureMinIn,WindSpeedMaxMPH,WindSpeedAvgMPH,GustSpeedMaxMPH,PrecipitationSumIn
2012-1-1,70.6,66.6,57.3,35.0,25.8,10.0,33,22,10,30.21,30.12,9,1,0,0.00
2012-1-2,68.6,62.2,46.4,44.0,29.6,14.0,83,31,15,30.31,30.20,9,1,0,0.00
2012-1-3,69.6,65.6,59.1,41.0,28.6,18.0,39,25,17,30.33,30.25,1,0,0,0.00
2012-1-4,74.3,68.9,64.3,44.0,29.8,20.0,34,24,16,30.34,30.25,1,0,0,0.00
2012-1-5,75.2,68.6,63.4,48.0,33.4,22.0,39,28,17,30.27,30.11,14,1,0,0.00
2012-1-6,64.8,59.0,49.9,48.0,29.0,3.0,74,36,9,30.14,30.06,9,0,0,0.00
2012-1-7,68.0,60.4,54.1,31.0,25.0,11.0,35,26,15,30.18,30.06,13,2,0,0.00
2012-1-8,61.2,56.5,52.3,32.0,24.2,15.0,39,29,20,30.27,30.15,4,0,0,0.00
2012-1-9,63.3,57.8,55.1,39.0,26.9,20.0,44,31,23,30.27,30.19,3,0,0,0.00
2012-1-10,57.5,52.8,47.5,41.0,26.7,17.0,58,38,21,30.20,30.12,3,0,0,0.00
2012-1-11,62.2,56.8,49.7,39.0,27.7,20.0,48,33,24,30.17,30.07,1,0,0,0.00
2012-1-12,63.1,59.1,56.5,38.0,26.8,20.0,43,30,22,30.16,30.05,2,0,0,0.00
2012-1-13,68.5,62.9,58.4,32.0,22.3,13.0,28,21,14,30.23,30.15,3,0,0,0.00
2012-1-14,63.9,58.4,53.5,36.0,21.4,11.0,45,25,15,30.21,30.13,2,0,0,0.00
2012-1-15,54.9,47.7,36.1,43.0,29.3,17.0,89,55,23,30.18,30.08,4,0,0,0.00
2012-1-16,50.3,40.7,35.5,28.0,19.5,13.0,73,44,32,30.38,30.18,12,1,0,0.00
2012-1-17,46.5,41.6,36.4,27.0,19.6,11.0,51,42,33,30.46,30.37,3,0,0,0.00
2012-1-18,53.5,47.6,42.4,42.0,22.1,7.0,70,39,19,30.46,30.31,3,0,0,0.00
2012-1-19,52.1,46.4,43.5,45.0,29.1,6.0,90,60,16,30.31,30.17,3,0,0,0.02
2012-1-20,51.2,49.7,47.4,50.0,48.6,45.0,97,95,90,30.19,29.96,12,2,0,4.16
2012-1-21,50.8,45.8,41.2,50.0,40.5,26.0,97,83,53,30.23,29.91,12,3,0,0.62
2012-1-22,51.2,45.5,41.2,46.0,37.2,26.0,96,74,42,30.26,30.03,15,2,0,1.01
2012-1-23,50.7,46.9,41.9,50.0,44.5,37.0,100,92,76,30.19,29.92,15,3,0,1.11
2012-1-24,60.2,51.6,42.8,50.0,42.7,34.0,83,72,54,30.44,30.19,11,1,0,0.01
2012-1-25,71.8,63.7,56.3,54.0,47.7,38.0,64,57,46,30.42,30.30,8,1,0,0.00
2012-1-26,66.7,61.5,57.9,52.0,47.3,40.0,67,60,48,30.32,30.20,13,2,0,0.00
2012-1-27,62.6,57.8,53.0,44.0,34.2,21.0,54,42,26,30.27,30.16,19,2,0,0.00
2012-1-28,67.0,59.7,52.4,40.0,29.3,23.0,44,32,26,30.32,30.25,11,0,0,0.00
2012-1-29,64.0,60.1,55.3,41.0,29.4,16.0,44,32,17,30.29,30.15,3,0,0,0.00
2012-1-30,63.3,57.8,51.4,47.0,34.1,15.0,66,44,17,30.14,30.02,6,0,0,0.00
2012-1-31,59.1,53.1,47.6,48.0,39.6,32.0,82,61,45,30.23,30.05,3,0,0,0.00
2012-2-1,59.6,54.3,50.1,48.0,34.5,8.0,76,50,14,30.30,30.21,8,0,0,0.00
2012-2-2,54.8,50.4,46.6,40.0,34.7,31.0,64,55,44,30.23,30.14,3,0,0,0.00
2012-2-7,51.9,49.3,48.5,45.0,39.9,-99.9,84,74,64,30.14,29.91,10,-18,0,0.17
2012-2-8,60.4,55.0,50.0,46.0,41.6,39.0,71,61,52,30.30,30.14,4,0,0,0.00
2012-2-9,69.7,60.9,55.2,49.0,39.4,31.0,59,46,29,30.31,30.19,5,0,0,0.00
2012-2-10,60.6,53.6,45.1,51.0,39.6,20.0,96,65,24,30.26,30.15,3,0,0,0.03
2012-2-11,53.0,46.2,41.7,50.0,43.9,38.0,97,92,77,30.15,30.07,5,0,0,0.04
2012-2-12,50.8,44.9,38.9,46.0,40.7,34.0,94,85,71,30.15,30.08,3,0,0,0.03
2012-2-13,44.9,41.0,38.7,41.0,38.5,34.0,95,91,77,30.11,30.01,9,1,0,0.73
2012-2-14,51.7,43.9,39.8,45.0,39.4,35.0,91,84,68,30.19,30.06,6,1,0,0.00
2012-2-15,50.2,44.2,37.9,42.0,31.6,22.0,93,64,40,30.20,30.08,15,2,0,0.17
2012-2-16,56.4,51.1,44.6,36.0,26.1,17.0,51,38,27,30.29,30.18,15,2,0,0.00
2012-2-17,61.8,55.4,50.4,47.0,33.9,17.0,68,46,25,30.30,30.20,5,1,0,0.00
2012-2-18,58.5,51.6,42.8,48.0,38.9,21.0,77,63,38,30.24,30.09,8,1,0,0.00
2012-2-19,51.0,44.6,40.2,40.0,31.8,19.0,92,63,38,30.19,30.12,2,0,0,0.00
2012-2-20,55.5,48.1,41.5,48.0,40.1,35.0,88,74,54,30.25,30.15,4,0,0,0.00
2012-2-21,63.9,56.0,49.4,48.0,40.5,36.0,68,57,41,30.32,30.23,10,1,0,0.00
2012-2-22,76.4,65.5,56.3,42.0,36.6,31.0,52,36,23,30.28,30.07,15,2,0,0.00
2012-2-23,77.0,66.1,60.7,47.0,33.7,24.0,47,31,20,30.06,29.91,18,3,0,0.00
2012-2-24,67.1,61.4,55.7,46.0,32.2,21.0,66,35,22,30.19,29.98,5,0,0,0.00
2012-2-25,66.8,58.0,52.0,43.0,20.6,6.0,56,25,13,30.23,30.11,19,4,0,0.00
2012-2-26,54.0,47.5,38.4,39.0,25.4,3.0,87,49,13,30.11,29.91,16,1,0,0.00
2012-2-27,45.7,38.0,35.2,43.0,33.4,29.0,93,83,76,30.08,29.91,4,0,0,0.12
2012-2-28,46.4,40.2,35.6,38.0,32.8,30.0,89,75,60,30.36,30.08,7,1,0,0.00
2012-2-29,46.5,42.7,38.0,46.0,41.2,33.0,97,94,76,30.34,30.27,9,2,0,1.14
2012-3-1,46.3,41.2,36.9,44.0,38.1,32.0,96,88,74,30.39,30.28,5,0,0,0.09
2012-3-2,54.8,48.7,39.1,39.0,30.9,22.0,73,52,30,30.39,30.27,14,0,0,0.00
2012-3-3,63.0,56.0,49.9,41.0,28.9,21.0,46,36,24,30.38,30.29,2,0,0,0.00
2012-3-4,72.7,66.5,59.1,39.0,28.5,13.0,32,24,12,30.29,30.08,2,0,0,0.00
2012-3-5,72.6,66.1,59.0,44.0,31.8,18.0,41,28,19,30.08,29.97,9,0,0,0.00
2012-3-6,58.1,45.5,37.3,41.0,30.0,20.0,85,57,23,30.04,29.93,10,2,0,0.00
2012-3-7,51.2,44.5,37.6,26.0,18.2,12.0,48,36,27,30.27,30.04,13,1,0,0.00
2012-3-8,63.1,54.9,47.0,35.0,21.7,10.0,40,28,14,30.39,30.27,1,0,0,0.00
2012-3-9,70.9,64.0,57.3,31.0,18.6,9.0,26,18,13,30.38,30.14,3,0,0,0.00
2012-3-10,62.0,54.1,41.2,45.0,30.8,14.0,91,48,17,30.13,30.00,4,0,0,0.00
2012-3-11,51.4,44.4,39.8,45.0,41.3,38.0,95,89,78,30.14,30.04,4,0,0,0.00
2012-3-12,49.2,45.1,43.2,47.0,41.7,38.0,94,88,79,30.13,30.08,4,0,0,0.01
2012-3-13,46.2,44.9,43.8,45.0,43.9,43.0,97,96,93,30.16,30.08,11,2,0,0.38
2012-3-14,50.5,48.2,46.1,50.0,47.6,45.0,98,98,97,30.27,30.14,5,1,0,0.54
2012-3-15,57.3,51.7,47.7,54.0,50.0,47.0,98,94,84,30.26,30.17,3,0,0,0.00
2012-3-16,50.1,48.6,46.8,49.0,48.0,46.0,98,97,96,30.18,29.83,8,1,0,2.50
2012-3-17,44.7,39.5,35.9,44.0,38.0,34.0,98,94,83,29.83,29.51,6,1,0,0.51
2012-3-18,44.0,37.5,33.7,40.0,34.2,31.0,94,88,75,30.05,29.79,11,2,0,0.27
2012-3-19,46.5,40.8,36.4,40.0,33.1,27.0,89,74,61,30.19,30.02,5,1,0,0.00
2012-3-20,57.6,50.3,43.3,48.0,41.7,30.0,89,73,54,30.27,30.18,5,0,0,0.00
2012-3-21,64.5,57.2,52.4,51.0,46.6,44.0,74,68,60,30.22,30.04,3,0,0,0.00
2012-3-22,56.5,51.1,42.1,49.0,44.2,34.0,84,77,70,30.06,29.96,4,1,0,0.00
2012-3-23,51.4,44.8,40.1,40.0,29.8,15.0,78,57,28,30.15,30.01,9,1,0,0.00
2012-3-24,47.2,43.1,39.3,43.0,38.8,14.0,96,86,26,30.04,29.86,15,4,0,1.79
2012-3-25,51.0,43.3,38.2,47.0,41.6,37.0,96,93,78,30.00,29.84,7,1,0,0.35
2012-3-26,48.0,42.5,38.8,46.0,39.8,36.0,94,90,83,30.21,30.01,7,1,0,0.00
2012-3-27,47.9,45.1,41.4,47.0,42.3,37.0,97,90,80,30.17,30.08,14,3,0,0.60
2012-3-28,53.3,49.4,47.2,53.0,48.4,44.0,98,96,78,30.21,30.10,12,1,0,0.22
2012-3-29,59.0,52.4,47.2,49.0,43.5,38.0,90,72,62,30.21,30.13,3,0,0,0.00
2012-3-30,58.1,53.8,50.0,53.0,44.9,36.0,86,72,55,30.16,30.02,4,0,0,0.00
2012-3-31,51.0,46.0,39.8,48.0,43.9,39.0,98,92,77,30.13,29.93,12,2,0,0.83
2012-4-1,56.6,46.4,39.3,44.0,34.5,21.0,95,66,33,30.32,30.12,12,2,0,0.06
2012-4-2,59.3,52.5,46.7,45.0,35.3,27.0,68,52,42,30.27,30.07,12,1,0,0.00
2012-4-3,61.8,54.7,48.3,48.0,41.5,36.0,86,62,48,30.12,30.05,4,0,0,0.00
2012-4-4,60.4,48.4,42.0,46.0,29.5,20.0,89,50,31,30.16,30.09,17,4,0,0.00
2012-4-5,49.6,43.4,38.3,38.0,27.4,21.0,64,54,44,30.25,30.11,17,4,0,0.00
2012-4-6,54.7,47.1,38.1,37.0,25.6,17.0,63,44,28,30.32,30.20,10,1,0,0.00
2012-4-7,60.1,54.3,47.5,40.0,26.3,-4.0,50,37,8,30.20,30.10,5,0,0,0.00
2012-4-8,62.6,54.8,46.0,44.0,19.3,-5.0,87,31,8,30.11,30.06,4,0,0,0.00
2012-4-9,61.2,52.4,41.8,44.0,22.1,-8.0,92,40,7,30.07,29.95,8,1,0,0.00
2012-4-10,50.5,46.5,43.4,48.0,44.5,39.0,96,92,72,29.98,29.90,4,0,0,1.11
2012-4-11,50.6,46.0,41.1,48.0,44.5,40.0,96,94,82,30.15,29.90,4,0,0,0.46
2012-4-12,51.7,46.7,42.6,48.0,45.4,42.0,97,95,82,30.16,29.99,12,3,0,0.81
2012-4-13,50.2,43.8,40.0,48.0,41.3,36.0,100,91,77,29.97,29.82,14,3,0,1.08
2012-4-14,52.8,44.7,38.9,46.0,40.1,35.0,89,84,76,30.23,29.97,7,1,0,0.08
2012-4-15,58.7,54.3,46.3,51.0,43.2,37.0,80,67,46,30.29,30.21,7,0,0,0.00
2012-4-16,65.1,59.9,55.6,50.0,43.3,39.0,64,55,49,30.27,30.17,3,0,0,0.00
2012-4-17,67.8,61.5,55.2,52.0,42.8,34.0,71,51,39,30.20,30.09,3,0,0,0.00
2012-4-18,74.9,64.6,56.5,53.0,39.4,13.0,62,41,16,30.14,30.06,11,1,0,0.00
2012-4-19,78.0,68.3,61.5,57.0,51.0,44.0,62,55,43,30.13,30.03,14,2,0,0.00
2012-4-20,83.4,73.9,65.0,61.0,54.4,49.0,64,52,36,30.08,29.96,7,1,0,0.00
2012-4-21,79.8,75.4,69.7,59.0,50.6,40.0,56,43,28,29.98,29.88,5,0,0,0.00
2012-4-22,73.7,61.7,49.2,56.0,50.2,44.0,90,68,36,29.96,29.89,3,0,0,0.00
2012-4-23,57.1,49.5,46.5,51.0,46.9,45.0,96,91,75,30.09,29.96,7,1,0,0.02
2012-4-24,58.4,52.6,48.9,51.0,48.7,47.0,94,87,74,30.13,30.03,7,1,0,0.00
2012-4-25,64.5,55.3,51.9,55.0,51.0,49.0,94,85,63,30.09,29.84,5,0,0,0.07
2012-4-26,57.6,51.2,45.6,52.0,46.1,34.0,97,84,61,30.19,29.87,14,2,0,0.66
2012-4-27,62.3,53.9,45.6,47.0,36.1,24.0,66,52,41,30.26,30.14,17,1,0,0.00
2012-4-28,75.6,64.7,54.9,55.0,42.2,26.0,56,44,29,30.15,29.91,12,2,0,0.00
2012-4-29,74.1,67.6,61.8,53.0,47.3,42.0,55,49,39,29.93,29.86,3,0,0,0.00
2012-4-30,73.9,67.6,56.9,56.0,48.7,42.0,68,51,42,29.99,29.91,3,0,0,0.00
2012-5-1,59.0,51.2,43.4,52.0,46.6,40.0,96,84,68,29.96,29.90,3,0,0,0.00
2012-5-2,56.0,47.9,40.8,48.0,42.1,31.0,93,81,57,30.05,29.94,2,0,0,0.00
2012-5-3,54.0,48.0,41.3,50.0,44.4,39.0,93,88,78,30.18,30.04,2,0,0,0.00
2012-5-4,62.7,53.9,46.6,51.0,43.7,19.0,94,73,26,30.22,30.15,10,1,0,0.01
2012-5-5,73.5,62.0,53.1,47.0,33.5,16.0,49,35,22,30.19,30.07,11,1,0,0.00
2012-5-6,75.8,67.4,59.5,44.0,35.1,28.0,36,30,26,30.09,30.00,13,1,0,0.00
2012-5-7,77.9,72.2,68.1,48.0,36.8,29.0,38,28,20,30.04,29.95,10,1,0,0.00
2012-5-8,78.4,72.2,68.1,46.0,36.0,29.0,37,27,20,29.98,29.93,2,0,0,0.00
2012-5-9,82.8,76.2,71.1,51.0,36.7,15.0,36,24,11,29.96,29.88,5,0,0,0.00
2012-5-10,73.1,66.0,56.0,52.0,34.9,8.0,70,38,9,29.91,29.85,2,0,0,0.00
2012-5-11,72.2,66.3,59.0,51.0,40.5,32.0,57,40,29,30.01,29.90,2,0,0,0.00
2012-5-12,75.9,68.8,60.2,54.0,42.7,34.0,57,40,29,30.07,30.00,3,0,0,0.00
2012-5-13,63.9,49.0,45.0,54.0,44.9,38.0,96,86,40,30.18,30.04,3,0,0,0.00
2012-5-14,53.9,50.1,46.8,50.0,45.2,40.0,92,83,72,30.19,30.09,4,0,0,0.00
2012-5-15,69.8,60.7,48.4,53.0,47.1,42.0,89,62,46,30.11,30.01,4,0,0,0.00
2012-5-16,85.4,72.9,62.5,54.0,43.1,16.0,51,37,11,30.02,29.93,2,0,0,0.00
2012-5-17,74.9,66.2,43.6,51.0,33.1,11.0,84,34,11,29.94,29.86,4,1,0,0.00
2012-5-18,70.6,59.2,44.5,50.0,40.1,22.0,83,52,25,29.98,29.89,4,0,0,0.00
2012-5-26,57.2,49.0,44.3,47.0,41.4,-99.9,91,80,66,30.16,0.00,4,-22,0,0.00
2012-5-27,63.3,54.8,43.8,50.0,42.9,34.0,92,67,34,30.18,30.09,10,0,0,0.01
2012-5-28,73.5,65.4,60.6,48.0,41.3,30.0,56,42,31,30.09,29.99,4,0,0,0.00
2012-5-29,70.6,61.3,57.3,50.0,46.1,42.0,67,58,43,30.07,29.98,3,0,0,0.00
2012-5-30,77.5,69.8,57.2,55.0,47.8,38.0,64,47,27,30.11,30.03,6,0,0,0.00
2012-5-31,85.3,78.1,71.2,52.0,44.7,39.0,38,31,20,30.05,29.85,6,0,0,0.00
2012-6-1,83.7,77.5,68.4,57.0,47.4,41.0,51,35,28,29.86,29.78,1,0,0,0.00
2012-6-2,84.9,74.0,56.6,57.0,45.1,27.0,68,37,19,29.92,29.82,9,1,0,0.00
2012-6-3,79.4,71.7,60.9,54.0,41.8,28.0,61,36,20,29.92,29.86,2,0,0,0.00
2012-6-4,63.6,55.5,46.3,55.0,49.0,38.0,96,79,58,30.15,29.90,5,0,0,0.14
2012-6-5,62.7,52.1,44.9,47.0,39.1,34.0,74,62,46,30.22,30.13,13,3,0,0.00
2012-6-6,71.9,61.7,49.9,48.0,37.5,28.0,54,42,25,30.15,29.98,9,1,0,0.00
2012-6-7,84.1,70.7,61.1,48.0,40.4,32.0,44,34,23,30.00,29.92,15,1,0,0.00
2012-6-8,82.6,69.9,60.8,47.0,32.7,9.0,53,28,12,29.94,29.88,13,2,0,0.00
2012-6-9,80.7,68.4,58.9,46.0,27.0,5.0,36,22,10,29.91,29.83,13,1,0,0.00
2012-6-10,78.6,71.4,65.4,37.0,31.2,25.0,29,23,18,29.93,29.85,7,0,0,0.00
2012-6-11,77.9,74.0,70.3,54.0,41.2,32.0,50,32,20,30.00,29.91,1,0,0,0.00
2012-6-12,85.9,75.4,69.7,56.0,42.8,31.0,50,32,21,29.97,29.89,15,1,0,0.00
2012-6-13,71.2,64.3,54.4,52.0,46.0,38.0,74,53,33,29.90,29.80,3,0,0,0.00
2012-6-14,63.4,53.8,46.3,51.0,47.1,38.0,95,79,44,29.91,29.81,3,0,0,0.00
2012-6-15,66.3,54.4,45.0,51.0,46.6,37.0,94,76,42,29.92,29.82,3,0,0,0.00
2012-6-16,90.8,78.8,63.3,60.0,50.7,44.0,65,39,28,29.90,29.81,2,0,0,0.00
2012-6-17,81.3,71.1,59.8,57.0,49.9,41.0,70,48,35,29.93,29.84,6,1,0,0.00
2012-6-18,75.5,69.2,60.9,55.0,45.6,39.0,72,44,34,29.94,29.87,2,0,0,0.00
2012-6-19,70.6,60.0,49.9,53.0,42.1,23.0,86,55,23,29.95,29.88,3,0,0,0.00
2012-6-20,82.8,73.7,63.9,54.0,41.9,28.0,62,33,20,29.90,29.83,3,0,0,0.00
2012-6-21,66.1,57.4,46.0,52.0,44.4,19.0,85,65,17,29.98,29.85,4,0,0,0.00
2012-6-22,62.0,54.0,43.7,52.0,45.2,36.0,89,73,50,30.03,29.91,3,0,0,0.00
2012-6-23,61.9,54.7,49.1,53.0,48.0,42.0,92,79,57,29.98,29.89,2,0,0,0.00
2012-6-24,63.3,54.5,47.9,49.0,43.7,40.0,78,67,55,30.08,29.97,4,0,0,0.00
2012-6-25,63.6,55.3,48.1,50.0,44.0,38.0,77,66,56,30.13,30.06,3,0,0,0.00
2012-6-26,73.0,63.9,55.0,51.0,43.3,38.0,64,48,34,30.06,29.90,4,0,0,0.00
2012-6-27,77.4,71.0,65.4,50.0,44.1,40.0,44,38,30,29.94,29.88,4,0,0,0.00
2012-6-28,78.3,69.7,64.6,54.0,46.6,41.0,58,44,35,30.06,29.94,3,0,0,0.00
2012-6-29,72.3,67.1,61.2,56.0,48.2,42.0,60,51,43,30.10,30.01,3,0,0,0.00
2012-6-30,72.6,67.7,62.2,57.0,50.8,42.0,70,55,44,30.02,29.93,2,0,0,0.00
2012-7-1,67.7,64.9,61.8,57.0,54.9,49.0,77,70,53,29.97,29.88,3,0,0,0.00
2012-7-2,74.2,68.1,60.1,57.0,50.3,34.0,66,54,23,29.93,29.87,6,0,0,0.00
2012-7-3,74.5,67.9,59.9,56.0,46.9,34.0,66,48,25,29.92,29.86,6,0,0,0.00
2012-7-4,66.5,53.6,47.3,52.0,46.9,42.0,98,80,41,29.99,29.85,1,0,0,0.00
2012-7-5,63.7,54.9,45.3,53.0,48.2,44.0,96,80,54,30.08,29.99,1,0,0,0.00
2012-7-6,74.8,67.2,58.1,56.0,49.0,44.0,69,53,34,30.06,30.00,3,0,0,0.00
2012-7-7,78.1,72.1,64.1,56.0,49.6,45.0,54,45,38,30.00,29.97,3,0,0,0.00
2012-7-8,79.8,70.7,61.1,56.0,48.3,43.0,59,46,28,30.05,29.97,0,0,0,0.00
2012-7-9,90.4,79.0,69.3,54.0,46.0,42.0,42,32,21,30.01,29.92,2,0,0,0.00
2012-7-10,92.4,85.3,78.9,52.0,43.1,33.0,31,23,13,29.92,29.82,2,0,0,0.00
2012-7-11,92.0,84.9,79.4,51.0,45.1,40.0,29,25,20,29.86,29.80,2,0,0,0.00
2012-7-12,88.2,79.3,72.1,56.0,47.6,38.0,51,33,26,29.86,29.77,2,0,0,0.00
2012-7-13,79.1,73.9,64.7,55.0,44.2,25.0,55,36,15,29.93,29.82,2,0,0,0.00
2012-7-14,64.3,56.5,50.3,53.0,47.3,34.0,88,73,36,30.00,29.89,3,0,0,0.00
2012-7-15,62.4,56.0,46.6,54.0,47.5,41.0,91,74,46,29.99,29.92,2,0,0,0.00
2012-7-16,59.0,52.0,46.8,50.0,47.8,45.0,95,86,71,30.01,29.93,13,2,0,0.00
2012-7-17,58.6,52.2,50.6,52.0,49.2,48.0,92,89,78,30.07,29.98,5,0,0,0.00
2012-7-18,64.4,61.8,57.6,53.0,47.2,40.0,78,60,44,30.07,30.01,5,0,0,0.00
2012-7-19,74.8,66.4,56.4,53.0,42.9,24.0,68,45,19,30.07,29.99,3,0,0,0.00
2012-7-20,84.0,76.4,68.1,54.0,38.7,20.0,37,26,15,30.06,29.97,7,0,0,0.00
2012-7-21,85.7,80.0,75.1,57.0,51.0,44.0,41,37,30,29.98,29.87,2,0,0,0.00
2012-7-22,76.0,67.7,59.0,56.0,49.9,45.0,75,55,35,29.97,29.86,3,0,0,0.00
2012-7-23,63.0,57.5,51.1,54.0,50.0,42.0,86,76,54,30.02,29.96,2,0,0,0.00
2012-7-24,60.7,53.0,46.6,52.0,47.9,33.0,95,83,40,30.06,30.00,2,0,0,0.00
2012-7-25,61.9,54.5,46.4,54.0,47.0,38.0,91,76,55,30.09,30.02,2,0,0,0.00
2012-7-26,57.7,50.8,46.3,52.0,47.2,42.0,93,88,63,30.08,30.00,2,0,0,0.00
2012-7-27,65.3,54.0,46.3,54.0,48.9,41.0,98,84,41,30.12,30.03,3,0,0,0.00
2012-7-28,86.8,72.5,64.6,56.0,44.3,33.0,54,37,21,30.07,29.99,5,0,0,0.00
2012-7-29,82.1,75.7,67.3,52.0,39.1,30.0,42,28,18,30.02,29.95,2,0,0,0.00
2012-7-30,85.7,78.7,72.6,49.0,40.8,32.0,32,26,19,29.98,29.90,2,0,0,0.00
2012-7-31,80.8,74.1,65.4,56.0,45.5,33.0,46,36,23,30.01,29.93,2,0,0,0.00
2012-8-1,81.1,73.8,62.7,53.0,42.0,26.0,51,34,14,30.07,29.99,2,0,0,0.00
2012-8-2,84.3,79.8,74.9,53.0,36.6,22.0,38,22,12,30.00,29.90,1,0,0,0.00
2012-8-3,76.1,67.3,57.5,56.0,43.0,27.0,79,48,18,29.91,29.85,1,0,0,0.00
2012-8-4,70.2,61.2,52.4,55.0,50.3,37.0,89,68,30,30.00,29.85,3,0,0,0.00
2012-8-5,80.0,69.4,58.1,58.0,49.8,41.0,79,52,28,30.08,29.99,1,0,0,0.00
2012-8-6,90.5,82.6,74.3,54.0,43.9,32.0,30,26,20,30.07,29.98,3,0,0,0.00
2012-8-7,92.8,85.6,80.4,53.0,44.6,40.0,29,24,21,29.99,29.91,2,0,0,0.00
2012-8-8,94.9,87.0,80.6,52.0,45.6,42.0,27,24,20,29.94,29.86,2,0,0,0.00
2012-8-9,97.8,89.5,83.4,51.0,44.9,36.0,29,21,14,29.90,29.80,2,0,0,0.00
2012-8-10,98.3,90.7,84.5,54.0,45.2,36.0,25,21,16,29.81,29.72,2,0,0,0.00
2012-8-11,94.7,86.7,75.8,55.0,43.8,34.0,37,23,15,29.80,29.71,1,0,0,0.00
2012-8-12,90.9,82.2,75.0,55.0,47.8,35.0,37,30,19,29.85,29.79,1,0,0,0.00
2012-8-13,90.4,84.1,79.3,53.0,44.3,35.0,32,25,16,29.84,29.78,1,0,0,0.00
2012-8-14,81.9,77.4,69.3,57.0,42.6,29.0,48,30,15,29.83,29.77,5,0,0,0.00
2012-8-15,79.9,73.4,65.7,52.0,38.3,29.0,45,29,20,29.90,29.79,5,0,0,0.00
2012-8-16,89.7,79.2,69.1,56.0,37.6,26.0,39,23,14,29.94,29.88,2,0,0,0.00
2012-8-17,92.0,84.5,75.3,54.0,45.1,34.0,33,25,15,29.94,29.86,6,0,0,0.00
2012-8-18,90.4,84.5,81.0,54.0,43.0,37.0,32,23,18,29.93,29.84,6,0,0,0.00
2012-8-19,88.5,82.7,75.3,53.0,41.4,20.0,33,24,10,29.91,29.83,4,0,0,0.00
2012-8-20,86.4,81.4,76.7,51.0,36.6,21.0,31,21,11,29.90,29.84,1,0,0,0.00
2012-8-21,78.1,74.0,68.1,53.0,43.1,34.0,48,34,22,29.92,29.85,2,0,0,0.00
2012-8-22,76.4,69.4,60.9,55.0,47.7,40.0,56,47,36,29.96,29.88,3,0,0,0.00
2012-8-23,76.6,69.0,63.4,56.0,45.0,32.0,67,44,24,29.97,29.89,1,0,0,0.00
2012-8-24,71.0,65.2,58.2,53.0,44.4,28.0,74,51,23,29.95,29.88,3,0,0,0.00
2012-8-25,58.1,53.9,47.7,53.0,49.2,45.0,95,84,69,29.94,29.87,2,0,0,0.00
2012-8-26,67.6,56.4,46.5,53.0,44.6,23.0,96,72,19,30.06,29.93,2,0,0,0.00
2012-8-27,80.5,73.3,63.0,47.0,36.2,22.0,35,27,16,30.05,29.96,3,0,0,0.00
2012-8-28,89.0,81.3,73.2,50.0,43.5,34.0,35,27,20,30.00,29.89,1,0,0,0.00
2012-8-29,88.4,82.0,75.3,51.0,43.9,20.0,34,27,10,29.89,29.79,3,0,0,0.00
2012-8-30,81.6,69.8,52.1,55.0,42.7,22.0,83,43,12,29.88,29.77,2,0,0,0.00
2012-8-31,64.1,55.8,45.6,53.0,48.0,24.0,94,77,25,30.00,29.87,1,0,0,0.00
2012-9-1,72.6,62.5,50.6,53.0,44.4,27.0,82,55,21,30.07,30.00,2,0,0,0.00
2012-9-2,80.2,74.1,67.9,48.0,39.3,35.0,35,29,20,30.01,29.92,2,0,0,0.00
2012-9-3,83.2,77.5,72.7,47.0,41.5,37.0,34,28,21,29.98,29.93,3,0,0,0.00
2012-9-4,83.2,75.4,68.2,50.0,40.3,32.0,35,28,22,30.02,29.95,1,0,0,0.00
2012-9-5,77.6,72.1,63.9,49.0,39.7,35.0,45,31,25,29.99,29.94,5,0,0,0.00
2012-9-6,77.0,69.2,63.7,49.0,39.2,28.0,48,34,23,30.02,29.94,6,0,0,0.00
2012-9-7,77.2,71.4,64.5,49.0,37.5,23.0,41,30,18,30.09,30.01,2,0,0,0.00
2012-9-8,85.7,78.4,71.0,58.0,50.8,40.0,46,38,31,30.05,29.91,2,0,0,0.00
2012-9-9,87.1,79.9,74.4,57.0,52.9,46.0,48,40,29,29.93,29.84,3,0,0,0.00
2012-9-10,75.7,69.5,60.3,54.0,49.1,42.0,72,50,35,29.92,29.85,2,0,0,0.00
2012-9-11,72.6,65.5,58.8,56.0,46.5,30.0,77,52,28,30.00,29.88,4,0,0,0.00
2012-9-12,72.9,64.6,54.1,63.0,54.2,37.0,90,70,39,30.10,29.99,4,0,0,0.00
2012-9-13,82.2,76.4,68.4,58.0,53.9,51.0,64,46,38,30.10,30.02,2,0,0,0.00
2012-9-14,87.7,80.6,73.5,56.0,49.7,43.0,44,35,23,30.06,29.99,2,0,0,0.00
2012-9-15,91.8,81.7,75.3,50.0,42.9,35.0,31,25,20,30.07,29.98,3,0,0,0.00
2012-9-16,85.9,76.8,61.1,49.0,36.5,29.0,51,24,18,30.02,29.97,4,0,0,0.00
2012-9-17,66.5,59.1,53.0,51.0,40.8,27.0,82,55,25,30.07,29.98,3,0,0,0.00
2012-9-18,80.2,72.2,62.1,46.0,31.0,19.0,32,22,14,30.10,30.01,3,0,0,0.00
2012-9-19,84.8,77.2,70.2,52.0,44.5,40.0,38,31,27,30.05,29.97,1,0,0,0.00
2012-9-20,86.0,78.8,71.0,49.0,43.4,40.0,33,29,24,30.01,29.93,3,0,0,0.00
2012-9-21,87.0,79.1,72.7,51.0,44.6,42.0,35,29,25,29.95,29.87,2,0,0,0.00
2012-9-22,82.1,75.0,71.1,52.0,45.0,41.0,41,35,30,29.93,29.88,4,0,0,0.00
2012-9-23,80.1,74.3,68.8,49.0,35.7,14.0,40,25,12,29.99,29.91,13,1,0,0.00
2012-9-24,70.1,64.1,55.9,53.0,35.3,13.0,74,39,12,29.98,29.90,2,0,0,0.00
2012-9-25,74.4,67.9,59.2,51.0,44.3,40.0,54,43,31,29.97,29.89,4,0,0,0.00
2012-9-26,78.7,71.7,66.4,53.0,42.8,38.0,51,36,29,29.90,29.84,5,0,0,0.00
2012-9-27,80.0,73.6,68.3,53.0,45.5,40.0,52,37,30,29.92,29.87,3,0,0,0.00
2012-9-28,74.2,66.2,53.3,56.0,44.7,32.0,87,49,25,29.98,29.88,4,0,0,0.00
2012-9-29,84.9,77.5,69.3,47.0,40.1,34.0,31,26,20,30.04,29.97,1,0,0,0.00
2012-9-30,96.0,86.1,78.7,50.0,43.5,40.0,27,23,18,30.04,29.94,12,1,0,0.00
2012-10-1,94.7,88.2,82.5,47.0,40.7,36.0,23,19,16,29.97,29.87,6,0,0,0.00
2012-10-2,90.8,86.5,79.6,48.0,38.9,32.0,25,19,14,29.88,29.81,3,0,0,0.00
2012-10-3,79.6,71.5,53.4,58.0,43.7,37.0,84,41,22,30.02,29.83,5,0,0,0.00
2012-10-4,66.1,55.8,51.0,54.0,49.5,38.0,95,81,41,30.19,30.01,2,0,0,0.00
2012-10-5,73.4,67.9,63.9,54.0,49.6,42.0,60,52,43,30.19,30.06,4,0,0,0.00
2012-10-6,72.9,66.8,62.6,51.0,46.2,39.0,60,48,39,30.06,29.95,3,0,0,0.00
2012-10-7,70.7,63.9,59.0,52.0,49.5,48.0,69,60,50,30.00,29.95,2,0,0,0.00
2012-10-8,65.5,58.5,54.6,53.0,47.5,39.0,82,68,52,30.08,30.00,5,0,0,0.00
2012-10-9,63.3,56.8,53.1,51.0,46.0,40.0,86,68,57,30.08,29.99,2,0,0,0.00
2012-10-10,55.3,53.0,50.5,53.0,49.0,46.0,95,86,75,30.02,29.97,3,0,0,0.22
2012-10-11,54.6,51.7,48.4,51.0,46.8,43.0,93,84,65,30.03,29.95,2,0,0,0.02
2012-10-12,55.7,51.7,49.7,51.0,49.0,46.0,94,90,82,30.27,30.04,1,0,0,0.01
2012-10-13,71.3,60.8,51.5,52.0,48.6,46.0,92,66,47,30.32,30.19,2,0,0,0.01
2012-10-14,79.8,71.8,63.8,54.0,48.1,45.0,56,44,33,30.21,30.05,1,0,0,0.00
2012-10-15,82.1,73.8,65.9,53.0,47.6,38.0,52,40,24,30.05,29.93,6,0,0,0.00
2012-10-16,87.4,77.5,71.8,59.0,50.7,37.0,58,40,22,29.98,29.83,10,1,0,0.00
2012-10-17,84.2,77.6,70.2,52.0,42.4,29.0,43,30,15,29.88,29.81,4,0,0,0.00
2012-10-18,82.0,74.1,60.7,62.0,49.6,33.0,93,50,17,30.04,29.87,6,1,0,0.00
2012-10-19,73.2,65.0,58.1,62.0,58.0,50.0,95,79,51,30.07,29.94,2,0,0,0.01
2012-10-20,70.5,62.4,48.3,55.0,47.1,36.0,91,61,31,29.93,29.82,5,0,0,0.00
2012-10-21,57.9,50.5,43.3,49.0,45.4,41.0,93,83,68,30.00,29.88,4,0,0,0.01
2012-10-22,55.5,49.8,47.2,53.0,46.6,41.0,96,89,77,30.07,29.91,14,2,0,0.71
2012-10-23,54.0,49.5,46.8,51.0,45.3,39.0,94,85,73,30.12,30.05,4,0,0,0.09
2012-10-24,58.8,51.7,45.6,52.0,42.7,30.0,87,72,53,30.27,30.11,3,0,0,0.01
2012-10-25,65.6,58.4,53.6,54.0,46.1,19.0,90,66,18,30.27,30.18,5,0,0,0.00
2012-10-26,75.0,64.9,55.0,48.0,37.8,27.0,57,37,22,30.21,30.08,9,1,0,0.00
2012-10-27,79.9,71.3,65.0,52.0,46.6,43.0,50,42,31,30.08,29.94,6,0,0,0.00
2012-10-28,75.9,70.9,67.3,52.0,46.8,43.0,51,42,37,30.03,29.94,5,0,0,0.00
2012-10-29,75.4,69.7,65.9,51.0,45.2,41.0,49,42,34,30.10,30.03,1,0,0,0.00
2012-10-30,71.3,67.0,60.7,52.0,42.9,37.0,55,42,36,30.08,30.00,1,0,0,0.00
2012-10-31,60.3,54.6,50.8,53.0,45.6,35.0,94,74,42,30.08,29.99,3,0,0,0.00
2012-11-1,59.0,55.4,52.6,57.0,53.2,50.0,96,92,81,30.10,30.04,3,0,0,0.08
2012-11-2,62.8,58.8,55.0,56.0,51.2,46.0,85,76,57,30.10,30.04,2,0,0,0.00
2012-11-3,71.9,64.4,56.9,49.0,43.0,32.0,65,47,26,30.14,30.08,6,0,0,0.00
2012-11-4,79.6,72.8,65.0,45.0,37.0,30.0,36,27,19,30.19,30.13,2,0,0,0.00
2012-11-5,85.7,78.5,73.5,40.0,33.2,27.0,23,19,16,30.15,30.05,3,0,0,0.00
2012-11-6,82.2,76.8,70.5,43.0,33.2,29.0,27,21,17,30.08,30.02,2,0,0,0.00
2012-11-7,70.7,60.5,48.0,51.0,41.0,29.0,94,57,23,30.05,29.96,2,0,0,0.00
2012-11-8,55.9,45.2,41.9,47.0,33.8,-99.9,95,80,51,30.05,29.94,6,1,0,0.10
2012-11-9,50.8,44.2,39.5,42.0,37.2,29.0,89,77,60,30.08,29.97,10,1,0,0.22
2012-11-10,52.1,44.7,39.5,43.0,36.3,28.0,86,73,54,30.31,30.07,12,2,0,0.07
2012-11-11,51.8,47.5,43.2,37.0,28.3,19.0,63,48,36,30.42,30.31,3,0,0,0.00
2012-11-12,63.2,55.1,46.7,39.0,28.9,21.0,48,37,26,30.42,30.25,1,0,0,0.00
2012-11-13,69.3,64.2,56.8,36.0,30.8,21.0,34,29,25,30.27,30.08,3,0,0,0.00
2012-11-14,72.2,65.6,62.8,39.0,30.4,21.0,32,27,19,30.11,30.03,3,0,0,0.00
2012-11-15,63.0,56.9,51.5,49.0,37.1,20.0,87,54,20,30.07,29.99,11,2,0,0.00
2012-11-16,52.6,8.8,52.1,51.0,-74.6,-99.9,95,18,89,30.07,29.97,20,9,0,0.93
2012-11-17,54.7,45.4,47.8,54.0,32.4,-99.9,98,92,97,30.13,29.93,23,5,0,1.81
2012-11-18,54.8,51.3,48.8,52.0,48.9,41.0,98,92,69,30.22,30.10,14,2,0,0.73
2012-11-20,56.9,53.0,52.1,56.0,49.2,-99.9,96,90,87,30.25,30.17,2,-17,0,0.01
2012-11-21,58.1,54.9,52.0,57.0,50.4,41.0,98,86,60,30.24,30.16,10,0,0,0.37
2012-11-22,61.7,58.0,53.0,51.0,45.3,32.0,72,64,33,30.24,30.16,2,0,0,0.00
2012-11-23,75.0,66.9,58.1,46.0,38.5,32.0,58,36,25,30.24,30.16,5,0,0,0.00
2012-11-24,73.6,69.3,65.8,47.0,37.0,31.0,41,31,25,30.18,29.99,4,0,0,0.00
2012-11-25,67.3,64.6,60.7,51.0,39.2,33.0,61,40,30,29.99,29.90,2,0,0,0.00
2012-11-26,61.1,51.9,45.5,53.0,43.4,36.0,99,76,40,30.14,29.97,4,0,0,0.00
2012-11-27,53.9,49.3,46.3,50.0,46.7,45.0,96,91,79,30.20,30.09,7,2,0,0.00
2012-11-28,54.0,51.7,49.4,53.0,49.7,45.0,97,93,78,30.16,30.00,26,7,0,1.10
2012-11-29,55.6,52.9,49.7,55.0,52.3,49.0,100,97,96,30.18,30.05,18,7,0,0.30
2012-11-30,55.2,36.1,50.5,55.0,3.6,-99.9,99,93,98,30.15,30.00,20,6,0,3.90
2012-12-1,50.8,1.6,50.8,51.0,-95.1,-99.9,99,28,98,30.18,30.12,14,3,0,1.06
2012-12-2,-200.0,0.0,200.0,-99.9,-99.9,-99.9,0,0,100,30.11,30.04,0,0,0,2.55
2012-12-3,55.3,37.6,46.1,51.0,8.0,-99.9,99,65,34,30.26,30.10,3,0,0,0.00
2012-12-4,57.1,51.1,45.9,51.0,45.5,23.0,96,82,33,30.34,30.24,4,0,0,0.00
2012-12-5,59.0,56.3,54.2,58.0,54.6,45.0,98,94,69,30.28,30.11,0,0,0,0.51
2012-12-6,61.3,57.8,55.4,56.0,49.1,29.0,98,75,34,30.13,30.04,5,0,0,0.00
2012-12-7,70.5,59.4,48.0,54.0,35.3,11.0,86,46,13,30.13,30.06,16,1,0,0.00
2012-12-8,63.8,57.4,53.0,50.0,29.5,7.0,73,37,13,30.07,29.98,4,0,0,0.00
2012-12-9,63.7,58.5,56.0,52.0,37.2,27.0,77,47,31,30.19,30.06,9,0,0,0.00
2012-12-10,65.4,61.3,56.2,41.0,35.9,32.0,46,39,34,30.23,30.13,3,0,0,0.00
2012-12-11,64.1,55.9,45.0,52.0,40.0,25.0,96,62,26,30.13,29.93,1,0,0,0.00
2012-12-12,49.8,44.4,41.1,44.0,39.8,33.0,96,84,69,29.96,29.89,7,1,0,0.37
2012-12-13,48.9,42.8,39.7,40.0,33.3,29.0,86,69,60,29.95,29.87,9,1,0,0.10
2012-12-14,46.0,42.3,39.8,40.0,33.5,24.0,89,72,50,30.09,29.89,4,0,0,0.01
2012-12-15,45.6,42.5,40.2,42.0,37.0,31.0,92,81,68,30.18,30.07,4,0,0,0.17
2012-12-16,49.0,46.9,43.6,48.0,45.9,42.0,97,96,91,30.20,30.08,4,0,0,0.18
2012-12-17,50.0,41.6,42.9,50.0,30.0,-99.9,98,98,97,30.20,30.05,7,1,0,0.65
2012-12-18,48.2,41.8,37.7,42.0,30.3,25.0,98,65,42,30.22,30.03,11,1,0,0.00
2012-12-19,48.2,42.1,37.3,27.0,20.3,13.0,58,42,29,30.37,30.22,12,1,0,0.00
2012-12-20,50.2,44.2,38.9,35.0,24.8,11.0,75,48,27,30.31,30.16,6,1,0,0.00
2012-12-21,47.3,44.7,41.3,46.0,41.2,33.0,100,88,70,30.15,30.04,14,4,0,0.73
2012-12-22,49.2,25.5,43.8,48.0,-18.8,-99.9,98,96,90,30.22,30.04,17,3,0,0.91
2012-12-23,51.9,47.6,43.1,51.0,46.8,42.0,98,97,96,30.22,30.05,12,4,0,4.01
2012-12-24,50.6,46.7,41.7,47.0,40.5,35.0,98,79,67,30.23,30.09,12,1,0,0.00
2012-12-25,51.5,44.9,41.5,44.0,40.4,32.0,96,85,54,30.20,29.95,11,1,0,1.05
2012-12-26,48.8,42.5,39.9,45.0,40.1,38.0,96,91,84,30.17,29.98,5,1,0,0.21
2012-12-27,50.3,43.8,40.5,41.0,35.6,32.0,94,73,58,30.23,30.14,9,1,0,0.01
2012-12-28,48.2,42.2,39.4,45.0,38.2,33.0,91,86,68,30.24,30.08,3,0,0,0.08
2012-12-29,42.0,39.7,37.6,40.0,37.7,36.0,94,92,88,30.08,30.02,5,1,0,0.98
2012-12-30,51.6,44.8,41.6,42.0,32.8,24.0,80,63,49,30.23,30.09,7,0,0,0.00
2012-12-31,47.1,43.1,40.3,37.0,30.1,19.0,74,61,41,30.34,30.23,10,0,0,0.00
2013-1-1,48.4,44.4,40.9,40.0,33.0,23.0,75,65,43,30.31,30.21,9,0,0,0.00